Regional Weather Roundup
Issued by NWS

Home | Current Version | Previous Version | Text Only | Print | Product List | Glossary On
Versions: 1 2 3 4 5 6 7 8 9 10 11 12 13 14 15 16 17 18 19 20 21 22 23 24 25 26 27 28 29 30 31 32 33 34 35 36 37 38 39 40 41 42 43 44 45 46 47 48 49 50
000
ASUS43 KTOP 270608
RWRKS

WEATHER ROUNDUP FOR KANSAS
NATIONAL WEATHER SERVICE GOODLAND KS
100 AM CDT FRI MAY 27 2016

NOTE:  "FAIR" INDICATES FEW OR NO CLOUDS BELOW 12,000 FEET WITH NO
SIGNIFICANT WEATHER AND/OR OBSTRUCTIONS TO VISIBILITY.

KSZ001>006-013>018-027>032-041>047-270700-
NORTHWEST KANSAS

CITY           SKY/WX    TMP DP  RH WIND       PRES   REMARKS
GOODLAND       CLEAR     46  45  96 NW7       29.74
6HR MIN TEMP:  46; 6HR MAX TEMP:  67; 6HR PCP:  0.29;

HAYS           CLOUDY    28 N/A N/A E14       29.78R WCI  17
HILL CITY      CLOUDY    57  54  89 E8        29.77R
6HR MIN TEMP:  57; 6HR MAX TEMP:  76; 6HR PCP:  0.25;

RUSSELL        CLOUDY    58  57  97 E16       29.75S
6HR MIN TEMP:  57; 6HR MAX TEMP:  70; 6HR PCP:  0.63;

$$

KSZ061>065-074>080-084>089-270700-
SOUTHWEST KANSAS

CITY           SKY/WX    TMP DP  RH WIND       PRES   REMARKS
DODGE CITY     CLOUDY    59  54  83 N16       29.73S
6HR MIN TEMP:  58; 6HR MAX TEMP:  77;

ELKHART          N/A     53  41  64 NW9         N/A
GARDEN CITY    CLOUDY    54  47  77 NE15      29.75F
6HR MIN TEMP:  52; 6HR MAX TEMP:  86;

GREAT BEND     CLOUDY    59  52  77 E15       29.72F
LIBERAL        CLEAR     55  39  54 NW12      29.77F
PRATT          CLOUDY    60  54  83 NE10      29.72R
6HR MIN TEMP:  57; 6HR MAX TEMP:  75; 6HR PCP:  0.76;

$$

KSZ066>073-081>083-090>101-270700-
SOUTHEAST KANSAS

CITY           SKY/WX    TMP DP  RH WIND       PRES   REMARKS
CHANUTE        CLOUDY    67  62  84 E9        29.81F
6HR MIN TEMP:  67; 6HR MAX TEMP:  81;

COFFEYVILLE    MOCLDY    70  64  81 E6        29.81S
6HR MIN TEMP:  70; 6HR MAX TEMP:  82;

HUTCHINSON     LGT RAIN  60  57  89 E32G38    29.69F
6HR MIN TEMP:  59; 6HR MAX TEMP:  67; 6HR PCP:  1.07;

MEDICINE LODGE   N/A     63  58  83 E9        29.65F
NEWTON         CLOUDY    55  52  88 E7        29.87  THUNDER
PARSONS        CLOUDY    72  64  76 E3        29.82F
6HR MIN TEMP:  71; 6HR MAX TEMP:  81;

WICHITA INTL   TSTM      62  59  90 E12       29.81S
6HR MIN TEMP:  61; 6HR MAX TEMP:  83; 6HR PCP:  0.52;

WICHITA JABRA  TSTM      59  59 100 NE13      29.81F
6HR MIN TEMP:  58; 6HR MAX TEMP:  80; 6HR PCP:  0.36;

WICHITA MCCONL LGT RAIN  60  58  94 NE12      29.81S
WINFIELD       TSTM      62  60  93 W6        29.87R FOG
6HR MIN TEMP:  63; 6HR MAX TEMP:  82; 6HR PCP:  0.14;

$$

KSZ007>012-019>026-033>040-048>060-102>105-270700-
NORTHEAST KANSAS

CITY           SKY/WX    TMP DP  RH WIND       PRES   REMARKS
CONCORDIA      RAIN      60  59  96 SE10      29.85R FOG
6HR MIN TEMP:  60; 6HR MAX TEMP:  64; 6HR PCP:  0.97;

EMPORIA        TSTM      57  56  96 W7        29.87R FOG
6HR MIN TEMP:  56; 6HR MAX TEMP:  64; 6HR PCP:  1.92;

LAWRENCE       CLOUDY    63  61  93 SE14G31   29.80F
6HR MIN TEMP:  62; 6HR MAX TEMP:  63; 6HR PCP:  1.44;

MANHATTAN      TSTM      61  58  90 SW7       29.89R FOG
6HR MIN TEMP:  60; 6HR MAX TEMP:  65; 6HR PCP:  0.87;

MARYSVILLE     TSTM      61  61 100 SE10      29.87R
OLATHE IND     CLOUDY    63  61  93 E9        29.84F
6HR MIN TEMP:  62; 6HR MAX TEMP:  64; 6HR PCP:  0.58;

OLATHE EXE     CLOUDY    62  61  96 E10       29.84F
6HR MIN TEMP:  62; 6HR MAX TEMP:  63; 6HR PCP:  0.88;

SALINA         RAIN      61  59  93 E17       29.80F
6HR MIN TEMP:  59; 6HR MAX TEMP:  66; 6HR PCP:  1.11;

TOPEKA BILLARD TSTM      63  61  93 W15       29.83R
6HR MIN TEMP:  62; 6HR MAX TEMP:  64; 6HR PCP:  1.05;

TOPEKA FORBES  TSTM      65  61  87 E17G26    29.77F
6HR MIN TEMP:  63; 6HR MAX TEMP:  65; 6HR PCP:  1.52;

$$




USA.gov is the U.S. government's official web portal to all federal, state and local government web resources and services.